YO8RXT-3 Weather Reports


Display with metric or nautical units.
time (UTC)temp
F
wind
direction
speed
MPH
gust
MPH
rain 1hr
in
rain 24hr
in
rain mn
in
humidity
%
barometer
mb
20260903020501 64 2.0 0.0 0.00 0.00 0.00 73 1019.0
20260903013503 66 20 8.0 0.0 0.00 0.00 0.00 64 1019.0
20260903010502 66 20 8.0 0.0 0.00 0.00 0.00 64 1019.0
20260903003502 66 340 10.0 0.0 0.00 0.00 0.00 68 1019.0
20260903000502 64 270 3.0 0.0 0.00 0.00 0.00 78 1019.0
20260902233501 64 260 5.0 0.0 0.00 0.00 0.00 78 1019.0
20260902230501 64 310 6.0 0.0 0.00 0.00 0.00 73 1019.0
20260902223502 66 290 3.0 0.0 0.00 0.00 0.00 73 1019.0
20260902220502 66 300 3.0 0.0 0.00 0.00 0.00 73 1019.0
20260902213502 68 330 3.0 0.0 0.00 0.00 0.00 64 1019.0
20260902210502 66 270 3.0 0.0 0.00 0.00 0.00 78 1019.0
20260902203502 70 320 3.0 0.0 0.00 0.00 0.00 64 1019.0
20260902200502 70 320 3.0 0.0 0.00 0.00 0.00 64 1019.0
20260902193502 70 290 3.0 0.0 0.00 0.00 0.00 69 1019.0
20260902190502 70 350 3.0 0.0 0.00 0.00 0.00 69 1019.0
20260902183502 70 280 2.0 0.0 0.00 0.00 0.00 69 1019.0
20260902180502 72 2.0 0.0 0.00 0.00 0.00 61 1019.0
20260902173502 73 310 3.0 0.0 0.00 0.00 0.00 57 1018.0
20260902170502 75 310 3.0 0.0 0.00 0.00 0.00 54 1018.0
20260902163502 75 310 5.0 0.0 0.00 0.00 0.00 57 1018.0
20260902160503 75 310 5.0 0.0 0.00 0.00 0.00 57 1018.0
20260902153503 77 320 5.0 0.0 0.00 0.00 0.00 51 1018.0
20260902150502 79 3.0 0.0 0.00 0.00 0.00 48 1018.0
20260902143502 79 3.0 0.0 0.00 0.00 0.00 48 1018.0
20260902140502 77 2.0 0.0 0.00 0.00 0.00 51 1019.0
20260902133501 77 290 5.0 0.0 0.00 0.00 0.00 51 1019.0
20260902130502 79 3.0 0.0 0.00 0.00 0.00 51 1019.0
20260902123502 79 310 8.0 0.0 0.00 0.00 0.00 51 1019.0
20260902120503 77 3.0 0.0 0.00 0.00 0.00 51 1019.0
20260902113502 77 60 3.0 0.0 0.00 0.00 0.00
20260902110502 75 2.0 0.0 0.00 0.00 0.00 54 1020.0
20260902103501 75 3.0 0.0 0.00 0.00 0.00 54 1020.0
20260902100503 77 3.0 0.0 0.00 0.00 0.00 54 1020.0
20260902093502 75 250 6.0 0.0 0.00 0.00 0.00 54 1021.0
20260902090501 73 3.0 0.0 0.00 0.00 0.00 61 1021.0
20260902083501 72 260 5.0 0.0 0.00 0.00 0.00 65 1021.0
20260902080502 70 2.0 0.0 0.00 0.00 0.00 69 1021.0
20260902073502 68 310 3.0 0.0 0.00 0.00 0.00 73 1021.0
20260902070502 68 280 6.0 0.0 0.00 0.00 0.00 73 1021.0
20260902063503 66 250 6.0 0.0 0.00 0.00 0.00 78 1021.0
20260902060503 64 250 5.0 0.0 0.00 0.00 0.00 83 1020.0
20260902053502 63 230 6.0 0.0 0.00 0.00 0.00 83 1020.0
20260902050502 61 240 3.0 0.0 0.00 0.00 0.00 88 1020.0
20260902043502 61 230 5.0 0.0 0.00 0.00 0.00 88 1020.0
20260902040502 61 1.0 0.0 0.00 0.00 0.00 88 1020.0
20260902033502 59 280 6.0 0.0 0.00 0.00 0.00 88 1020.0
20260902030502 59 280 5.0 0.0 0.00 0.00 0.00 88 1020.0
20260902023503 57 3.0 0.0 0.00 0.00 0.00 94 1020.0